User: anonymous   Login
Location: Albany
(35.0000°S, 118.0000°E)
Time: 08:15:46
(UTC-04:00)
Language:

Cosmos 1758 Rocket - Orbit

View from above orbital plane
View from above orbital plane
View from above satellite
View from above satellite

Ground track
Ground track

The orbit data is extracted from the following two-line orbital elements,

1 16792U 86046B   17172.58081068 +.00000093 +00000-0 +85445-5 0  9996
2 16792 082.4819 198.2742 0022675 279.3329 186.0662 14.83135058654449
Epoch (UTC): 21 June 2017 13:56:22
Eccentricity: 0.0022675
inclination: 82.4819°
perigee height: 603 km
apogee height: 635 km
right ascension of ascending node: 198.2742°
argument of perigee: 279.3329°
revolutions per day: 14.83135058
mean anomaly at epoch: 186.0662°
orbit number at epoch: 65444

The dashed part of the orbit path shows where the satellite is in the earth's shadow,  

DLR